Weather in Vsevolgsk

Russia / Saint-Petersburg and Leningrad Oblast     60°01′16″N   30°39′14″E
temp.,
°C
wind,
m/s
gust,
m/s
humid.,
%
clouds,
%
prec.,
mm/h
press.,
hPa
HPBL,
m
22 april, thu
thu2200:00+1sw2498100 0.1 1003237
03:00+2s1399100 0.2 1003157
06:00+1sse239742 0.0 1004114
09:00+6s258331 0.0 1004385
12:00+11sw465319 0.0 10041190
15:00+14sw4843100 0.0 10052274
18:00+12wsw255398 0.0 1006809
21:00+8se237380 0.0 100551
23 april, fri
fri2300:00+7s51192100 5.4 10041084
03:00+6ssw4990100 7.4 1004488
06:00+4s3792100 0.0 1004321
09:00+6ssw477750 0.0 1004759
12:00+8s5856100 0.1 10051933
15:00+6ssw585997 0.3 10071681
18:00+7s496250 0.2 10061491
21:00+4s38805 0.3 1007315
24 april, sat
sat2400:00+2sse39885 0.0 1007256
03:000sse279549 0.0 1007215
06:00+2ssw269298 0.0 1007427
09:00+3sw237389 0.0 1007880
12:00+3sw2267100 0.0 1007868
15:00+4wsw236087 0.0 10071009
18:00+5w335888 0.0 1006991
21:00+1nw227827 0.0 100621
25 april, sun
sun2500:000w118215 0.0 100512
03:00−1w11876 0.0 100522
06:00−1w129118 0.0 100444
09:00+3wsw227219 0.0 1004586
12:00+6sw225494 0.0 10051398
15:00+8sse124897 0.3 10051480
18:00+6se226255 1.2 1006752
21:00+3ese11848 2.1 100716
26 april, mon
mon2600:00+1sw11865 0.0 100810
03:00+1w2286100 0.0 100822
06:000wsw2487100 0.0 1008104
09:00+4w3572100 0.0 1008482
12:00+5w4667100 0.0 10091028
15:00+5w5766100 0.1 1009953
18:00+4w4876100 0.0 1009836
21:00+2wsw3995100 0.1 1008641